カタログに戻る

STARLINK-2646

運用中通信VLEO
NORAD 48642·PAYLOAD·🇺🇸 United States

打ち上げ May 26, 2021 から Cape Canaveral Space Force Station

Loading…

次のパス (今後24時間)

TLE

最新Source: CelesTrak SupGP

元期: Sep 14, 2026, 20:15 UTC

1 48642C 21044E   26257.84423611 -.00030207  00000+0 -97134-3 0  2573
2 48642  53.1591 313.6557 0000831  73.0494 126.6651 15.31719016    11

AllMySatでSTARLINK-2646をリアルタイム追跡

Download on the App Store